Location: Kinloch
(38.7406°N, 90.3254°W)
Time: 15:28:54
(UTC+00:00)

Aureole 1 Rocket - Pass Details

Date: 13 February 2026
Orbit: 374 x 1158 km, 73.9° (Epoch: 8 March)

Event Time Altitude Azimuth Distance (km) Brightness Sun altitude
Rises 12:13:05 0° 205° (SSW) 4,018 7.1 -8.7°
Reaches altitude 10° 12:15:52 10° 208° (SSW) 3,058 6.4 -8.2°
Maximum altitude 12:23:12 67° 290° (WNW) 1,189 4.3 -6.8°
Drops below altitude 10° 12:29:51 10° 13° (NNE) 2,778 6.4 -5.5°
Sets 12:32:16 0° 16° (NNE) 3,632 7.0 -5.0°
